Time,TemperatureF,DewpointF,PressureIn,WindDirection,WindDirectionDegrees,WindSpeedMPH,WindSpeedGustMPH,Humidity,HourlyPrecipIn,Conditions,Clouds,dailyrainin,SoftwareType,DateUTC
2013-10-20 00:01:00,30.3,27.7,29.80,West,264,0.0,0.0,90,0.00,,CLR,0.00,VWS V14.01,2013-10-20 05:01:00,
2013-10-20 00:06:00,30.2,27.6,29.80,West,265,0.0,0.0,90,0.00,,CLR,0.00,VWS V14.01,2013-10-20 05:06:00,
2013-10-20 00:11:00,30.1,27.5,29.80,West,265,0.0,0.0,90,0.00,,CLR,0.00,VWS V14.01,2013-10-20 05:11:00,
2013-10-20 00:16:00,30.0,27.4,29.80,West,265,0.0,0.0,90,0.00,,CLR,0.00,VWS V14.01,2013-10-20 05:16:00,
2013-10-20 00:22:00,29.8,27.2,29.79,West,265,0.0,0.0,90,0.00,,CLR,0.00,VWS V14.01,2013-10-20 05:22:00,
2013-10-20 00:27:00,29.7,27.4,29.79,West,264,0.0,0.0,91,0.00,,CLR,0.00,VWS V14.01,2013-10-20 05:27:00,
2013-10-20 00:32:00,29.6,27.3,29.79,West,265,0.0,0.0,91,0.00,,CLR,0.00,VWS V14.01,2013-10-20 05:32:00,
2013-10-20 00:37:00,29.4,27.1,29.79,West,264,0.0,0.0,91,0.00,,CLR,0.00,VWS V14.01,2013-10-20 05:37:00,
2013-10-20 00:42:00,29.4,27.1,29.79,West,265,0.0,0.0,91,0.00,,CLR,0.00,VWS V14.01,2013-10-20 05:42:00,
2013-10-20 00:48:00,29.3,27.3,29.79,West,265,0.0,0.0,92,0.00,,CLR,0.00,VWS V14.01,2013-10-20 05:48:00,
2013-10-20 00:53:00,29.3,27.3,29.79,West,265,0.0,0.0,92,0.00,,CLR,0.00,VWS V14.01,2013-10-20 05:53:00,
2013-10-20 00:58:00,29.3,27.3,29.79,West,265,0.0,0.0,92,0.00,,CLR,0.00,VWS V14.01,2013-10-20 05:58:00,
2013-10-20 01:03:00,29.3,27.5,29.79,West,265,0.0,0.0,93,0.00,,CLR,0.00,VWS V14.01,2013-10-20 06:03:00,
2013-10-20 01:09:00,29.4,27.6,29.78,West,265,0.0,0.0,93,0.00,,CLR,0.00,VWS V14.01,2013-10-20 06:09:00,
2013-10-20 01:14:00,29.4,27.6,29.78,West,265,0.0,0.0,93,0.00,,CLR,0.00,VWS V14.01,2013-10-20 06:14:00,
2013-10-20 01:19:00,29.3,27.5,29.78,West,265,0.0,0.0,93,0.00,,CLR,0.00,VWS V14.01,2013-10-20 06:19:00,
2013-10-20 01:25:00,29.4,27.6,29.79,West,265,0.0,0.0,93,0.00,,CLR,0.00,VWS V14.01,2013-10-20 06:25:00,
2013-10-20 01:30:00,29.4,27.6,29.79,West,265,0.0,0.0,93,0.00,,CLR,0.00,VWS V14.01,2013-10-20 06:30:00,
2013-10-20 01:35:00,29.3,27.5,29.78,West,265,0.0,0.0,93,0.00,,CLR,0.00,VWS V14.01,2013-10-20 06:35:00,
2013-10-20 01:41:00,29.3,27.5,29.78,West,265,0.0,0.0,93,0.00,,CLR,0.00,VWS V14.01,2013-10-20 06:41:00,
2013-10-20 01:46:00,29.2,27.4,29.78,West,265,0.0,0.0,93,0.00,,CLR,0.00,VWS V14.01,2013-10-20 06:46:00,
2013-10-20 01:51:00,29.2,27.4,29.79,West,265,0.0,0.0,93,0.00,,CLR,0.00,VWS V14.01,2013-10-20 06:51:00,
2013-10-20 01:57:00,29.1,27.3,29.78,West,265,0.0,0.0,93,0.00,,CLR,0.00,VWS V14.01,2013-10-20 06:57:00,
2013-10-20 02:02:00,29.0,27.2,29.78,West,265,0.0,0.0,93,0.00,,CLR,0.00,VWS V14.01,2013-10-20 07:02:00,
2013-10-20 02:07:00,28.9,27.1,29.78,West,265,0.0,0.0,93,0.00,,CLR,0.00,VWS V14.01,2013-10-20 07:07:00,
2013-10-20 02:12:00,28.8,27.0,29.78,West,265,0.0,0.0,93,0.00,,CLR,0.00,VWS V14.01,2013-10-20 07:12:00,
2013-10-20 02:17:00,28.7,26.9,29.78,West,265,0.0,0.0,93,0.00,,CLR,0.00,VWS V14.01,2013-10-20 07:17:00,
2013-10-20 02:22:00,28.7,26.9,29.78,West,265,0.0,0.0,93,0.00,,CLR,0.00,VWS V14.01,2013-10-20 07:22:00,
2013-10-20 02:27:00,28.6,26.8,29.78,West,265,0.0,0.0,93,0.00,,CLR,0.00,VWS V14.01,2013-10-20 07:27:00,
2013-10-20 02:32:00,28.5,26.7,29.78,West,265,0.0,0.0,93,0.00,,CLR,0.00,VWS V14.01,2013-10-20 07:32:00,
2013-10-20 02:37:00,28.5,26.7,29.78,West,265,0.0,0.0,93,0.00,,CLR,0.00,VWS V14.01,2013-10-20 07:37:00,
2013-10-20 02:42:00,28.4,26.6,29.78,West,265,0.0,0.0,93,0.00,,CLR,0.00,VWS V14.01,2013-10-20 07:42:00,
2013-10-20 02:47:00,28.3,26.5,29.78,West,265,0.0,0.0,93,0.00,,CLR,0.00,VWS V14.01,2013-10-20 07:47:00,
2013-10-20 02:53:00,28.2,26.4,29.77,West,265,0.0,0.0,93,0.00,,CLR,0.00,VWS V14.01,2013-10-20 07:53:00,
2013-10-20 02:59:00,28.2,26.4,29.77,West,264,0.0,0.0,93,0.00,,CLR,0.00,VWS V14.01,2013-10-20 07:59:00,
2013-10-20 03:04:00,28.1,26.3,29.77,West,264,0.0,0.0,93,0.00,,CLR,0.00,VWS V14.01,2013-10-20 08:04:00,
2013-10-20 03:10:00,28.1,26.6,29.77,West,265,0.0,0.0,94,0.00,,CLR,0.00,VWS V14.01,2013-10-20 08:10:00,
2013-10-20 03:15:00,28.2,26.7,29.77,West,265,0.0,0.0,94,0.00,,CLR,0.00,VWS V14.01,2013-10-20 08:15:00,
2013-10-20 03:21:00,28.2,26.7,29.77,West,265,0.0,0.0,94,0.00,,CLR,0.00,VWS V14.01,2013-10-20 08:21:00,
2013-10-20 03:26:00,28.2,26.7,29.77,West,265,0.0,0.0,94,0.00,,CLR,0.00,VWS V14.01,2013-10-20 08:26:00,
2013-10-20 03:31:00,28.3,26.8,29.77,West,265,0.0,0.0,94,0.00,,CLR,0.00,VWS V14.01,2013-10-20 08:31:00,
2013-10-20 03:37:00,28.4,26.9,29.77,West,265,0.0,0.0,94,0.00,,CLR,0.00,VWS V14.01,2013-10-20 08:37:00,
2013-10-20 03:42:00,28.7,27.5,29.77,West,265,0.0,0.0,95,0.00,,SCT100,0.00,VWS V14.01,2013-10-20 08:42:00,
2013-10-20 03:47:00,28.9,27.6,29.77,West,265,0.0,0.0,95,0.00,,SCT100,0.00,VWS V14.01,2013-10-20 08:47:00,
2013-10-20 03:52:00,29.2,28.0,29.77,West,265,0.0,1.0,95,0.00,,SCT100,0.00,VWS V14.01,2013-10-20 08:52:00,
2013-10-20 03:57:00,29.4,28.1,29.76,West,265,0.0,0.0,95,0.00,,SCT100,0.00,VWS V14.01,2013-10-20 08:57:00,
2013-10-20 04:02:00,29.7,28.5,29.76,West,265,0.0,0.0,95,0.00,,BKN100,0.00,VWS V14.01,2013-10-20 09:02:00,
2013-10-20 04:07:00,29.9,28.4,29.77,West,265,0.0,0.0,94,0.00,,BKN100,0.00,VWS V14.01,2013-10-20 09:07:00,
2013-10-20 04:12:00,30.2,28.7,29.77,West,265,0.0,0.0,94,0.00,,BKN100,0.00,VWS V14.01,2013-10-20 09:12:00,
2013-10-20 04:18:00,30.5,29.0,29.76,West,264,0.0,0.0,94,0.00,,BKN100,0.00,VWS V14.01,2013-10-20 09:18:00,
2013-10-20 04:23:00,30.8,29.3,29.76,West,265,0.0,0.0,94,0.00,,,0.00,VWS V14.01,2013-10-20 09:23:00,
2013-10-20 04:29:00,31.1,29.6,29.76,West,265,0.0,2.0,94,0.00,,,0.00,VWS V14.01,2013-10-20 09:29:00,
2013-10-20 04:34:00,31.4,29.9,29.76,West,265,0.0,0.0,94,0.00,,,0.00,VWS V14.01,2013-10-20 09:34:00,
2013-10-20 04:39:00,31.5,29.7,29.76,West,265,0.0,0.0,93,0.00,,,0.00,VWS V14.01,2013-10-20 09:39:00,
2013-10-20 04:44:00,31.8,30.0,29.76,West,264,0.0,0.0,93,0.00,,OVC065,0.00,VWS V14.01,2013-10-20 09:44:00,
2013-10-20 04:50:00,32.0,30.2,29.76,West,264,0.0,0.0,93,0.00,,OVC065,0.00,VWS V14.01,2013-10-20 09:50:00,
2013-10-20 04:55:00,32.1,30.3,29.76,West,264,0.0,0.0,93,0.00,,OVC065,0.00,VWS V14.01,2013-10-20 09:55:00,
2013-10-20 05:01:00,32.3,30.5,29.76,West,265,0.0,0.0,93,0.00,,OVC065,0.00,VWS V14.01,2013-10-20 10:01:00,
2013-10-20 05:06:00,32.4,30.6,29.76,West,265,0.0,0.0,93,0.00,,OVC060,0.00,VWS V14.01,2013-10-20 10:06:00,
2013-10-20 05:11:00,32.5,30.7,29.76,West,265,0.0,0.0,93,0.00,,OVC060,0.00,VWS V14.01,2013-10-20 10:11:00,
2013-10-20 05:16:00,32.6,30.8,29.76,West,265,0.0,0.0,93,0.00,,OVC060,0.00,VWS V14.01,2013-10-20 10:16:00,
2013-10-20 05:21:00,32.7,30.9,29.76,West,265,0.0,0.0,93,0.00,,,0.00,VWS V14.01,2013-10-20 10:21:00,
2013-10-20 05:26:00,32.8,30.7,29.76,West,265,0.0,1.0,92,0.00,,,0.00,VWS V14.01,2013-10-20 10:26:00,
2013-10-20 05:31:00,32.9,30.8,29.76,West,265,0.0,0.0,92,0.00,,,0.00,VWS V14.01,2013-10-20 10:31:00,
2013-10-20 05:36:00,33.0,30.9,29.76,West,265,0.0,2.0,92,0.00,,,0.00,VWS V14.01,2013-10-20 10:36:00,
2013-10-20 05:41:00,33.2,31.1,29.75,West,265,0.0,0.0,92,0.00,,OVC044,0.00,VWS V14.01,2013-10-20 10:41:00,
2013-10-20 05:46:00,33.2,30.9,29.75,West,265,0.0,0.0,91,0.00,,OVC044,0.00,VWS V14.01,2013-10-20 10:46:00,
2013-10-20 05:51:00,33.3,31.0,29.75,West,265,0.0,0.0,91,0.00,,OVC044,0.00,VWS V14.01,2013-10-20 10:51:00,
2013-10-20 05:56:00,33.4,31.1,29.75,West,265,0.0,0.0,91,0.00,,OVC044,0.00,VWS V14.01,2013-10-20 10:56:00,
2013-10-20 06:02:00,33.5,31.2,29.74,West,265,0.0,0.0,91,0.00,,,0.00,VWS V14.01,2013-10-20 11:02:00,
2013-10-20 06:07:00,33.6,31.3,29.74,West,265,0.0,0.0,91,0.00,,,0.00,VWS V14.01,2013-10-20 11:07:00,
2013-10-20 06:12:00,33.6,31.5,29.73,West,265,0.0,0.0,92,0.00,,,0.00,VWS V14.01,2013-10-20 11:12:00,
2013-10-20 06:17:00,33.6,31.5,29.73,West,265,0.0,0.0,92,0.00,,,0.00,VWS V14.01,2013-10-20 11:17:00,
2013-10-20 06:22:00,33.6,31.5,29.73,West,265,0.0,0.0,92,0.00,,OVC041,0.00,VWS V14.01,2013-10-20 11:22:00,
2013-10-20 06:28:00,33.6,31.5,29.73,West,265,0.0,0.0,92,0.00,,OVC041,0.00,VWS V14.01,2013-10-20 11:28:00,
2013-10-20 06:34:00,33.7,31.6,29.73,West,265,0.0,0.0,92,0.00,,OVC041,0.00,VWS V14.01,2013-10-20 11:34:00,
2013-10-20 06:39:00,33.6,31.8,29.73,West,265,0.0,0.0,93,0.00,,OVC041,0.00,VWS V14.01,2013-10-20 11:39:00,
2013-10-20 06:44:00,33.7,31.9,29.72,West,265,0.0,0.0,93,0.00,,RA,0.00,VWS V14.01,2013-10-20 11:44:00,
2013-10-20 06:49:00,33.6,31.8,29.72,West,265,0.0,0.0,93,0.00,,RA,0.00,VWS V14.01,2013-10-20 11:49:00,
2013-10-20 06:54:00,33.6,31.8,29.72,West,265,0.0,0.0,93,0.00,,RA,0.00,VWS V14.01,2013-10-20 11:54:00,
2013-10-20 07:00:00,33.6,31.8,29.72,West,265,0.0,0.0,93,0.00,,OVC075,0.00,VWS V14.01,2013-10-20 12:00:00,
2013-10-20 07:05:00,33.5,31.7,29.72,West,264,0.0,0.0,93,0.00,,OVC075,0.00,VWS V14.01,2013-10-20 12:05:00,
2013-10-20 07:10:00,33.5,31.7,29.72,West,265,0.0,0.0,93,0.00,,OVC075,0.00,VWS V14.01,2013-10-20 12:10:00,
2013-10-20 07:15:00,33.5,31.7,29.71,West,264,0.0,0.0,93,0.00,,OVC075,0.00,VWS V14.01,2013-10-20 12:15:00,
2013-10-20 07:20:00,33.5,31.7,29.71,West,264,0.0,0.0,93,0.00,,-RA,0.00,VWS V14.01,2013-10-20 12:20:00,
2013-10-20 07:25:00,33.5,32.0,29.71,West,265,0.0,0.0,94,0.00,,-RA,0.00,VWS V14.01,2013-10-20 12:25:00,
2013-10-20 07:30:00,33.6,32.1,29.71,West,265,0.0,0.0,94,0.00,,-RA,0.00,VWS V14.01,2013-10-20 12:30:00,
2013-10-20 07:35:00,33.5,32.0,29.71,West,264,0.0,0.0,94,0.00,,-RA,0.00,VWS V14.01,2013-10-20 12:35:00,
2013-10-20 07:41:00,33.6,32.1,29.71,West,265,0.0,0.0,94,0.00,,OVC048,0.00,VWS V14.01,2013-10-20 12:41:00,
2013-10-20 07:46:00,33.6,32.1,29.70,West,264,0.0,0.0,94,0.00,,OVC048,0.00,VWS V14.01,2013-10-20 12:46:00,
2013-10-20 07:51:00,33.6,32.1,29.70,West,265,0.0,0.0,94,0.00,,OVC048,0.00,VWS V14.01,2013-10-20 12:51:00,
2013-10-20 07:56:00,33.7,32.2,29.70,West,265,0.0,0.0,94,0.00,,OVC048,0.00,VWS V14.01,2013-10-20 12:56:00,
2013-10-20 08:01:00,33.7,32.2,29.70,West,264,0.0,0.0,94,0.00,,,0.00,VWS V14.01,2013-10-20 13:01:00,
2013-10-20 08:06:00,33.9,32.4,29.70,West,264,0.0,0.0,94,0.00,,,0.00,VWS V14.01,2013-10-20 13:06:00,
2013-10-20 08:11:00,34.0,32.5,29.70,West,265,0.0,0.0,94,0.00,,,0.00,VWS V14.01,2013-10-20 13:11:00,
2013-10-20 08:17:00,34.1,32.6,29.70,West,265,0.0,0.0,94,0.00,,,0.00,VWS V14.01,2013-10-20 13:17:00,
2013-10-20 08:22:00,34.2,32.7,29.70,West,265,0.0,0.0,94,0.00,,,0.00,VWS V14.01,2013-10-20 13:22:00,
2013-10-20 08:27:00,34.3,32.8,29.70,West,264,0.0,0.0,94,0.00,,,0.00,VWS V14.01,2013-10-20 13:27:00,
2013-10-20 08:32:00,34.5,33.0,29.70,West,265,0.0,0.0,94,0.00,,,0.00,VWS V14.01,2013-10-20 13:32:00,
2013-10-20 08:38:00,34.7,33.2,29.71,West,265,0.0,0.0,94,0.00,,,0.00,VWS V14.01,2013-10-20 13:38:00,
2013-10-20 08:44:00,34.8,33.2,29.71,West,265,0.0,0.0,94,0.00,,BKN060,0.00,VWS V14.01,2013-10-20 13:44:00,
2013-10-20 08:49:00,35.0,33.5,29.71,West,264,0.0,1.0,94,0.00,,BKN060,0.00,VWS V14.01,2013-10-20 13:49:00,
2013-10-20 08:54:00,35.1,33.5,29.71,West,265,0.0,0.0,94,0.00,,BKN060,0.00,VWS V14.01,2013-10-20 13:54:00,
2013-10-20 08:59:00,35.3,33.8,29.71,West,264,0.0,0.0,94,0.00,,BKN060,0.00,VWS V14.01,2013-10-20 13:59:00,
2013-10-20 09:06:00,35.5,34.0,29.71,West,265,0.0,0.0,94,0.00,,OVC060,0.00,VWS V14.01,2013-10-20 14:06:00,
2013-10-20 09:11:00,35.6,34.0,29.71,West,265,0.0,0.0,94,0.00,,OVC060,0.00,VWS V14.01,2013-10-20 14:11:00,
2013-10-20 09:16:00,35.7,33.9,29.71,West,264,0.0,0.0,93,0.00,,OVC060,0.00,VWS V14.01,2013-10-20 14:16:00,
2013-10-20 09:21:00,35.8,34.0,29.70,West,265,0.0,0.0,93,0.00,,,0.00,VWS V14.01,2013-10-20 14:21:00,
2013-10-20 09:26:00,35.9,34.1,29.70,West,264,0.0,0.0,93,0.00,,,0.00,VWS V14.01,2013-10-20 14:26:00,
2013-10-20 09:32:00,35.9,34.1,29.70,West,265,0.0,0.0,93,0.01,,,0.01,VWS V14.01,2013-10-20 14:32:00,
2013-10-20 09:37:00,36.0,34.2,29.70,West,265,0.0,0.0,93,0.01,,,0.01,VWS V14.01,2013-10-20 14:37:00,
2013-10-20 09:42:00,36.1,34.3,29.70,West,265,0.0,0.0,93,0.01,,,0.01,VWS V14.01,2013-10-20 14:42:00,
2013-10-20 09:47:00,36.2,34.4,29.70,West,265,0.0,0.0,93,0.01,,,0.01,VWS V14.01,2013-10-20 14:47:00,
2013-10-20 09:52:00,36.4,34.6,29.69,West,264,0.0,0.0,93,0.01,,,0.01,VWS V14.01,2013-10-20 14:52:00,
2013-10-20 09:57:00,36.8,35.2,29.69,West,264,0.0,0.0,94,0.01,,,0.01,VWS V14.01,2013-10-20 14:57:00,
2013-10-20 10:02:00,37.1,35.3,29.69,West,264,0.0,0.0,93,0.01,,,0.01,VWS V14.01,2013-10-20 15:02:00,
2013-10-20 10:07:00,37.1,35.0,29.69,West,265,0.0,0.0,92,0.01,,,0.01,VWS V14.01,2013-10-20 15:07:00,
2013-10-20 10:12:00,37.3,35.5,29.69,West,265,0.0,0.0,93,0.01,,,0.01,VWS V14.01,2013-10-20 15:12:00,
2013-10-20 10:17:00,37.3,35.2,29.68,West,265,0.0,0.0,92,0.01,,,0.01,VWS V14.01,2013-10-20 15:17:00,
2013-10-20 10:23:00,37.3,35.2,29.68,West,265,0.0,0.0,92,0.01,,BKN049,0.01,VWS V14.01,2013-10-20 15:23:00,
2013-10-20 10:29:00,37.3,35.2,29.67,West,264,0.0,0.0,92,0.01,,BKN049,0.01,VWS V14.01,2013-10-20 15:29:00,
2013-10-20 10:35:00,37.3,34.9,29.67,West,264,0.0,0.0,91,0.00,,BKN049,0.01,VWS V14.01,2013-10-20 15:35:00,
2013-10-20 10:40:00,37.2,34.8,29.67,West,264,0.0,0.0,91,0.00,,BKN055,0.01,VWS V14.01,2013-10-20 15:40:00,
2013-10-20 10:45:00,37.1,34.7,29.67,West,265,0.0,0.0,91,0.00,,BKN055,0.01,VWS V14.01,2013-10-20 15:45:00,
2013-10-20 10:51:00,37.2,35.1,29.67,West,265,0.0,0.0,92,0.00,,BKN055,0.01,VWS V14.01,2013-10-20 15:51:00,
2013-10-20 10:56:00,37.5,35.7,29.67,West,265,0.0,0.0,93,0.00,,BKN055,0.01,VWS V14.01,2013-10-20 15:56:00,
2013-10-20 11:02:00,37.6,35.5,29.67,West,265,0.0,0.0,92,0.00,,OVC050,0.01,VWS V14.01,2013-10-20 16:02:00,
2013-10-20 11:08:00,37.9,36.1,29.67,West,265,0.0,0.0,93,0.00,,OVC050,0.01,VWS V14.01,2013-10-20 16:08:00,
2013-10-20 11:13:00,38.3,36.5,29.67,West,264,0.0,0.0,93,0.00,,OVC050,0.01,VWS V14.01,2013-10-20 16:13:00,
2013-10-20 11:19:00,38.9,37.0,29.66,West,265,0.0,1.0,93,0.00,,OVC050,0.01,VWS V14.01,2013-10-20 16:19:00,
2013-10-20 11:24:00,39.3,37.2,29.66,West,265,0.0,0.0,92,0.00,,OVC048,0.01,VWS V14.01,2013-10-20 16:24:00,
2013-10-20 11:29:00,39.7,37.6,29.66,West,265,0.0,0.0,92,0.00,,OVC048,0.01,VWS V14.01,2013-10-20 16:29:00,
2013-10-20 11:34:00,40.2,37.8,29.66,SSE,154,0.0,2.0,91,0.00,,OVC048,0.01,VWS V14.01,2013-10-20 16:34:00,
2013-10-20 11:36:00,40.2,37.5,29.66,SSE,149,0.0,7.0,90,0.00,,OVC048,0.01,VWS V14.01,2013-10-20 16:36:00,
2013-10-20 11:42:00,40.7,37.7,29.66,SSE,150,0.0,0.0,89,0.00,,BKN044,0.01,VWS V14.01,2013-10-20 16:42:00,
2013-10-20 11:47:00,41.3,37.7,29.66,SE,138,0.0,9.0,87,0.00,,BKN044,0.01,VWS V14.01,2013-10-20 16:47:00,
2013-10-20 11:52:00,41.9,38.0,29.66,SSE,162,0.0,8.0,86,0.00,,BKN044,0.01,VWS V14.01,2013-10-20 16:52:00,
2013-10-20 11:58:00,42.6,37.8,29.65,SSE,147,6.0,6.0,83,0.00,,BKN044,0.01,VWS V14.01,2013-10-20 16:58:00,
2013-10-20 12:03:00,42.9,37.5,29.65,SE,125,4.0,7.0,81,0.00,,BKN044,0.01,VWS V14.01,2013-10-20 17:03:00,
2013-10-20 12:08:00,43.4,38.0,29.65,SSE,152,2.0,6.0,81,0.00,,BKN044,0.01,VWS V14.01,2013-10-20 17:08:00,
2013-10-20 12:13:00,44.0,37.6,29.64,SSE,162,5.0,11.0,78,0.00,,BKN044,0.01,VWS V14.01,2013-10-20 17:13:00,
2013-10-20 12:19:00,44.4,38.0,29.64,SSE,153,0.0,9.0,78,0.00,,BKN044,0.01,VWS V14.01,2013-10-20 17:19:00,
2013-10-20 12:24:00,44.8,37.7,29.65,South,174,1.0,11.0,76,0.00,,BKN042,0.01,VWS V14.01,2013-10-20 17:24:00,
2013-10-20 12:29:00,45.3,38.2,29.64,SSE,150,5.0,6.0,76,0.00,,BKN042,0.01,VWS V14.01,2013-10-20 17:29:00,
2013-10-20 12:34:00,46.1,39.0,29.64,South,186,8.0,8.0,76,0.00,,BKN042,0.01,VWS V14.01,2013-10-20 17:34:00,
2013-10-20 12:39:00,46.4,38.2,29.64,South,177,2.0,12.0,73,0.00,,BKN042,0.01,VWS V14.01,2013-10-20 17:39:00,
2013-10-20 12:45:00,46.5,38.3,29.64,SSE,157,5.0,16.0,73,0.00,,CLR,0.01,VWS V14.01,2013-10-20 17:45:00,
2013-10-20 12:50:00,46.8,39.0,29.63,SSE,158,6.0,9.0,74,0.00,,CLR,0.01,VWS V14.01,2013-10-20 17:50:00,
2013-10-20 12:56:00,47.2,39.0,29.63,SSW,194,9.0,11.0,73,0.00,,CLR,0.01,VWS V14.01,2013-10-20 17:56:00,
2013-10-20 13:02:00,47.2,39.0,29.63,South,170,2.0,10.0,73,0.00,,CLR,0.01,VWS V14.01,2013-10-20 18:02:00,
2013-10-20 13:07:00,47.7,39.1,29.62,SSE,149,2.0,9.0,72,0.00,,CLR,0.01,VWS V14.01,2013-10-20 18:07:00,
2013-10-20 13:12:00,48.2,39.6,29.62,SSE,149,6.0,8.0,72,0.00,,CLR,0.01,VWS V14.01,2013-10-20 18:12:00,
2013-10-20 13:17:00,48.7,40.5,29.62,South,182,1.0,3.0,73,0.00,,CLR,0.01,VWS V14.01,2013-10-20 18:17:00,
2013-10-20 13:22:00,48.7,39.7,29.62,SSW,207,7.0,8.0,71,0.00,,SCT029,0.01,VWS V14.01,2013-10-20 18:22:00,
2013-10-20 13:27:00,48.4,38.7,29.62,South,178,2.0,8.0,69,0.00,,SCT029,0.01,VWS V14.01,2013-10-20 18:27:00,
2013-10-20 13:32:00,48.1,39.2,29.62,WSW,246,3.0,3.0,71,0.00,,SCT029,0.01,VWS V14.01,2013-10-20 18:32:00,
2013-10-20 13:38:00,47.7,39.1,29.62,South,186,2.0,4.0,72,0.00,,SCT029,0.01,VWS V14.01,2013-10-20 18:38:00,
2013-10-20 13:43:00,47.5,39.3,29.62,WSW,246,0.0,2.0,73,0.00,,BKN110,0.01,VWS V14.01,2013-10-20 18:43:00,
2013-10-20 13:49:00,47.4,39.5,29.62,SW,225,0.0,3.0,74,0.00,,BKN110,0.01,VWS V14.01,2013-10-20 18:49:00,
2013-10-20 13:54:00,47.5,40.0,29.62,SSW,205,0.0,0.0,75,0.00,,BKN110,0.01,VWS V14.01,2013-10-20 18:54:00,
2013-10-20 14:00:00,47.4,39.5,29.62,SW,225,2.0,3.0,74,0.00,,OVC029,0.01,VWS V14.01,2013-10-20 19:00:00,
2013-10-20 14:05:00,47.3,39.8,29.62,WSW,239,0.0,0.0,75,0.00,,OVC029,0.01,VWS V14.01,2013-10-20 19:05:00,
2013-10-20 14:10:00,47.3,40.1,29.62,WSW,242,0.0,3.0,76,0.00,,OVC029,0.01,VWS V14.01,2013-10-20 19:10:00,
2013-10-20 14:15:00,47.2,39.7,29.62,WSW,242,1.0,4.0,75,0.00,,OVC029,0.01,VWS V14.01,2013-10-20 19:15:00,
2013-10-20 14:20:00,47.2,40.4,29.61,WSW,242,0.0,0.0,77,0.00,,OVC029,0.01,VWS V14.01,2013-10-20 19:20:00,
2013-10-20 14:26:00,47.1,39.9,29.61,South,185,0.0,0.0,76,0.00,,OVC029,0.01,VWS V14.01,2013-10-20 19:26:00,
2013-10-20 14:31:00,47.1,40.3,29.61,SSW,198,0.0,0.0,77,0.00,,OVC029,0.01,VWS V14.01,2013-10-20 19:31:00,
2013-10-20 14:37:00,47.1,40.3,29.61,South,179,5.0,5.0,77,0.00,,OVC029,0.01,VWS V14.01,2013-10-20 19:37:00,
2013-10-20 14:42:00,47.1,40.6,29.61,South,179,0.0,0.0,78,0.00,,OVC029,0.01,VWS V14.01,2013-10-20 19:42:00,
2013-10-20 14:47:00,47.0,40.5,29.61,South,179,0.0,0.0,78,0.00,,OVC029,0.01,VWS V14.01,2013-10-20 19:47:00,
2013-10-20 14:53:00,47.0,40.5,29.61,South,179,0.0,0.0,78,0.00,,OVC029,0.01,VWS V14.01,2013-10-20 19:53:00,
2013-10-20 14:58:00,47.1,40.6,29.61,South,179,0.0,0.0,78,0.00,,OVC029,0.01,VWS V14.01,2013-10-20 19:58:00,
2013-10-20 15:03:00,47.0,40.5,29.61,South,179,0.0,0.0,78,0.00,,OVC027,0.01,VWS V14.01,2013-10-20 20:03:00,
2013-10-20 15:08:00,47.0,41.2,29.61,South,179,0.0,0.0,80,0.00,,OVC027,0.01,VWS V14.01,2013-10-20 20:08:00,
2013-10-20 15:13:00,47.0,41.5,29.61,South,179,0.0,0.0,81,0.00,,OVC027,0.01,VWS V14.01,2013-10-20 20:13:00,
2013-10-20 15:18:00,47.0,41.2,29.61,South,179,0.0,0.0,80,0.00,,OVC027,0.01,VWS V14.01,2013-10-20 20:18:00,
2013-10-20 15:23:00,47.0,41.5,29.61,South,179,0.0,2.0,81,0.00,,,0.01,VWS V14.01,2013-10-20 20:23:00,
2013-10-20 15:29:00,47.0,41.8,29.61,South,179,0.0,2.0,82,0.00,,,0.01,VWS V14.01,2013-10-20 20:29:00,
2013-10-20 15:34:00,47.0,42.1,29.61,South,179,1.0,2.0,83,0.00,,,0.01,VWS V14.01,2013-10-20 20:34:00,
2013-10-20 15:39:00,47.0,42.4,29.61,South,180,0.0,1.0,84,0.00,,,0.01,VWS V14.01,2013-10-20 20:39:00,
2013-10-20 15:44:00,46.9,42.6,29.61,SSW,197,0.0,3.0,85,0.00,,OVC025,0.01,VWS V14.01,2013-10-20 20:44:00,
2013-10-20 15:49:00,46.9,42.9,29.62,SSW,197,0.0,0.0,86,0.00,,OVC025,0.01,VWS V14.01,2013-10-20 20:49:00,
2013-10-20 15:54:00,46.8,42.8,29.62,SSW,197,0.0,0.0,86,0.00,,OVC025,0.01,VWS V14.01,2013-10-20 20:54:00,
2013-10-20 16:00:00,46.3,42.7,29.62,SSW,197,0.0,0.0,87,0.00,,RA,0.01,VWS V14.01,2013-10-20 21:00:00,
2013-10-20 16:05:00,45.9,42.3,29.63,SSW,198,0.0,0.0,87,0.00,,RA,0.01,VWS V14.01,2013-10-20 21:05:00,
2013-10-20 16:10:00,45.6,42.3,29.63,SSW,201,0.0,0.0,88,0.00,,RA,0.01,VWS V14.01,2013-10-20 21:10:00,
2013-10-20 16:15:00,45.4,42.3,29.63,SSW,205,0.0,0.0,89,0.00,,RA,0.01,VWS V14.01,2013-10-20 21:15:00,
2013-10-20 16:20:00,45.2,42.5,29.63,SSW,205,0.0,0.0,90,0.00,,-RA,0.01,VWS V14.01,2013-10-20 21:20:00,
2013-10-20 16:25:00,45.1,42.3,29.64,SSW,205,0.0,0.0,90,0.00,,-RA,0.01,VWS V14.01,2013-10-20 21:25:00,
2013-10-20 16:30:00,45.0,42.5,29.64,SSW,205,0.0,0.0,91,0.00,,-RA,0.01,VWS V14.01,2013-10-20 21:30:00,
2013-10-20 16:35:00,45.0,42.5,29.64,SSW,205,0.0,1.0,91,0.01,,-RA,0.02,VWS V14.01,2013-10-20 21:35:00,
2013-10-20 16:41:00,44.9,42.7,29.64,SW,236,4.0,4.0,92,0.01,,,0.02,VWS V14.01,2013-10-20 21:41:00,
2013-10-20 16:46:00,44.8,42.6,29.65,West,259,0.0,0.0,92,0.01,,,0.02,VWS V14.01,2013-10-20 21:46:00,
2013-10-20 16:51:00,44.5,42.3,29.65,WNW,300,8.0,8.0,92,0.01,,,0.02,VWS V14.01,2013-10-20 21:51:00,
2013-10-20 16:56:00,44.1,41.9,29.66,West,277,0.0,2.0,92,0.01,,,0.02,VWS V14.01,2013-10-20 21:56:00,
2013-10-20 17:02:00,43.7,41.2,29.66,West,276,0.0,2.0,91,0.01,,,0.02,VWS V14.01,2013-10-20 22:02:00,
2013-10-20 17:07:00,43.6,41.2,29.66,NW,313,1.0,1.0,91,0.01,,,0.02,VWS V14.01,2013-10-20 22:07:00,
2013-10-20 17:12:00,43.4,41.0,29.67,NW,304,1.0,5.0,91,0.01,,,0.02,VWS V14.01,2013-10-20 22:12:00,
2013-10-20 17:17:00,43.3,40.8,29.67,WNW,284,1.0,2.0,91,0.01,,,0.02,VWS V14.01,2013-10-20 22:17:00,
2013-10-20 17:22:00,43.0,40.3,29.67,West,271,0.0,2.0,90,0.01,,OVC027,0.02,VWS V14.01,2013-10-20 22:22:00,
2013-10-20 17:27:00,42.7,40.0,29.68,WNW,289,0.0,1.0,90,0.01,,OVC027,0.02,VWS V14.01,2013-10-20 22:27:00,
2013-10-20 17:33:00,42.4,39.7,29.68,West,279,4.0,4.0,90,0.01,,OVC027,0.02,VWS V14.01,2013-10-20 22:33:00,
2013-10-20 17:38:00,42.2,39.5,29.69,NW,314,2.0,7.0,90,0.00,,OVC027,0.02,VWS V14.01,2013-10-20 22:38:00,
2013-10-20 17:43:00,41.8,39.1,29.69,NNW,348,4.0,6.0,90,0.00,,-RA,0.02,VWS V14.01,2013-10-20 22:43:00,
2013-10-20 17:49:00,41.4,38.7,29.70,NW,313,0.0,0.0,90,0.00,,-RA,0.02,VWS V14.01,2013-10-20 22:49:00,
2013-10-20 17:54:00,41.1,38.4,29.70,West,277,0.0,4.0,90,0.00,,-RA,0.02,VWS V14.01,2013-10-20 22:54:00,
2013-10-20 18:00:00,40.6,37.6,29.71,NW,306,0.0,6.0,89,0.00,,OVC014,0.02,VWS V14.01,2013-10-20 23:00:00,
2013-10-20 18:06:00,40.4,37.7,29.71,NNW,329,0.0,4.0,90,0.00,,OVC014,0.02,VWS V14.01,2013-10-20 23:06:00,
2013-10-20 18:11:00,40.2,37.5,29.72,NW,311,0.0,1.0,90,0.00,,OVC014,0.02,VWS V14.01,2013-10-20 23:11:00,
2013-10-20 18:16:00,40.1,37.4,29.72,NW,321,0.0,7.0,90,0.00,,OVC014,0.02,VWS V14.01,2013-10-20 23:16:00,
2013-10-20 18:22:00,39.8,36.8,29.73,West,275,0.0,3.0,89,0.00,,OVC022,0.02,VWS V14.01,2013-10-20 23:22:00,
2013-10-20 18:28:00,39.5,36.5,29.73,West,263,0.0,3.0,89,0.00,,OVC022,0.02,VWS V14.01,2013-10-20 23:28:00,
2013-10-20 18:34:00,39.0,35.5,29.74,NW,313,0.0,3.0,87,0.00,,OVC022,0.02,VWS V14.01,2013-10-20 23:34:00,
2013-10-20 18:39:00,38.7,35.5,29.74,West,269,5.0,5.0,88,0.00,,OVC022,0.02,VWS V14.01,2013-10-20 23:39:00,
2013-10-20 18:44:00,38.5,35.3,29.75,WNW,290,0.0,1.0,88,0.00,,OVC029,0.02,VWS V14.01,2013-10-20 23:44:00,
2013-10-20 18:49:00,38.2,35.0,29.75,NW,317,0.0,7.0,88,0.00,,OVC029,0.02,VWS V14.01,2013-10-20 23:49:00,
2013-10-20 18:54:00,37.8,34.6,29.76,NW,321,0.0,4.0,88,0.00,,OVC029,0.02,VWS V14.01,2013-10-20 23:54:00,
2013-10-20 19:00:00,37.6,34.7,29.76,WNW,294,0.0,1.0,89,0.00,,-RA,0.02,VWS V14.01,2013-10-21 00:00:00,
2013-10-20 19:06:00,37.5,34.6,29.76,WNW,284,0.0,1.0,89,0.00,,-RA,0.02,VWS V14.01,2013-10-21 00:06:00,
2013-10-20 19:11:00,37.5,34.6,29.77,West,267,1.0,4.0,89,0.00,,-RA,0.02,VWS V14.01,2013-10-21 00:11:00,
2013-10-20 19:16:00,37.3,34.4,29.77,NW,311,0.0,8.0,89,0.00,,-RA,0.02,VWS V14.01,2013-10-21 00:16:00,
2013-10-20 19:21:00,37.2,34.3,29.78,West,279,2.0,3.0,89,0.00,,-RA,0.02,VWS V14.01,2013-10-21 00:21:00,
2013-10-20 19:26:00,37.1,34.2,29.78,West,277,0.0,0.0,89,0.00,,OVC050,0.02,VWS V14.01,2013-10-21 00:26:00,
2013-10-20 19:31:00,37.0,34.1,29.78,NW,317,0.0,0.0,89,0.00,,OVC050,0.02,VWS V14.01,2013-10-21 00:31:00,
2013-10-20 19:37:00,37.0,34.3,29.79,NW,307,0.0,4.0,90,0.00,,OVC050,0.02,VWS V14.01,2013-10-21 00:37:00,
2013-10-20 19:42:00,37.0,34.3,29.79,West,261,2.0,8.0,90,0.00,,OVC045,0.02,VWS V14.01,2013-10-21 00:42:00,
2013-10-20 19:47:00,36.9,34.2,29.80,WNW,284,0.0,7.0,90,0.00,,OVC045,0.02,VWS V14.01,2013-10-21 00:47:00,
2013-10-20 19:52:00,36.9,34.2,29.80,WNW,293,0.0,3.0,90,0.00,,OVC045,0.02,VWS V14.01,2013-10-21 00:52:00,
2013-10-20 19:57:00,36.8,34.2,29.80,West,277,0.0,0.0,90,0.00,,OVC045,0.02,VWS V14.01,2013-10-21 00:57:00,
2013-10-20 20:02:00,36.8,34.2,29.80,WNW,288,3.0,5.0,90,0.00,,OVC016,0.02,VWS V14.01,2013-10-21 01:02:00,
2013-10-20 20:07:00,36.8,34.2,29.80,West,267,0.0,0.0,90,0.00,,OVC016,0.02,VWS V14.01,2013-10-21 01:07:00,
2013-10-20 20:12:00,36.8,34.2,29.81,NW,305,4.0,4.0,90,0.00,,OVC016,0.02,VWS V14.01,2013-10-21 01:12:00,
2013-10-20 20:18:00,36.8,33.9,29.81,West,263,0.0,1.0,89,0.00,,OVC016,0.02,VWS V14.01,2013-10-21 01:18:00,
2013-10-20 20:23:00,36.9,34.2,29.81,West,281,0.0,3.0,90,0.00,,OVC016,0.02,VWS V14.01,2013-10-21 01:23:00,
2013-10-20 20:28:00,37.0,34.3,29.82,WNW,286,0.0,0.0,90,0.00,,OVC024,0.02,VWS V14.01,2013-10-21 01:28:00,
2013-10-20 20:33:00,37.0,34.3,29.82,NW,326,2.0,4.0,90,0.00,,OVC024,0.02,VWS V14.01,2013-10-21 01:33:00,
2013-10-20 20:38:00,36.9,34.2,29.82,WNW,289,0.0,1.0,90,0.00,,OVC024,0.02,VWS V14.01,2013-10-21 01:38:00,
2013-10-20 20:43:00,36.9,34.2,29.82,WNW,298,0.0,2.0,90,0.00,,OVC025,0.02,VWS V14.01,2013-10-21 01:43:00,
2013-10-20 20:48:00,36.9,34.0,29.82,WNW,286,0.0,3.0,89,0.00,,OVC025,0.02,VWS V14.01,2013-10-21 01:48:00,
2013-10-20 20:54:00,36.9,34.0,29.82,NW,318,0.0,0.0,89,0.00,,OVC025,0.02,VWS V14.01,2013-10-21 01:54:00,
2013-10-20 20:59:00,36.9,34.0,29.82,WNW,294,3.0,3.0,89,0.00,,OVC025,0.02,VWS V14.01,2013-10-21 01:59:00,
2013-10-20 21:04:00,36.8,33.9,29.83,NW,304,0.0,4.0,89,0.00,,OVC032,0.02,VWS V14.01,2013-10-21 02:04:00,
2013-10-20 21:09:00,36.9,33.7,29.83,WNW,298,0.0,5.0,88,0.00,,OVC032,0.02,VWS V14.01,2013-10-21 02:09:00,
2013-10-20 21:14:00,36.9,34.0,29.83,West,271,0.0,5.0,89,0.00,,OVC032,0.02,VWS V14.01,2013-10-21 02:14:00,
2013-10-20 21:19:00,37.0,34.1,29.83,WNW,286,3.0,7.0,89,0.00,,OVC032,0.02,VWS V14.01,2013-10-21 02:19:00,
2013-10-20 21:24:00,37.0,34.1,29.83,West,277,0.0,1.0,89,0.00,,OVC035,0.02,VWS V14.01,2013-10-21 02:24:00,
2013-10-20 21:29:00,37.0,34.1,29.84,West,276,0.0,1.0,89,0.00,,OVC035,0.02,VWS V14.01,2013-10-21 02:29:00,
2013-10-20 21:34:00,37.0,33.8,29.84,WNW,286,0.0,1.0,88,0.00,,OVC035,0.02,VWS V14.01,2013-10-21 02:34:00,
2013-10-20 21:39:00,37.0,33.8,29.84,WNW,302,0.0,0.0,88,0.00,,OVC035,0.02,VWS V14.01,2013-10-21 02:39:00,
2013-10-20 21:45:00,37.0,33.8,29.84,WNW,295,0.0,1.0,88,0.00,,OVC037,0.02,VWS V14.01,2013-10-21 02:45:00,
2013-10-20 21:50:00,37.0,33.5,29.85,NW,321,0.0,2.0,87,0.00,,OVC037,0.02,VWS V14.01,2013-10-21 02:50:00,
2013-10-20 21:56:00,37.0,33.5,29.85,NNW,329,0.0,5.0,87,0.00,,OVC037,0.02,VWS V14.01,2013-10-21 02:56:00,
2013-10-20 22:01:00,37.0,33.5,29.85,WNW,294,1.0,4.0,87,0.00,,OVC035,0.02,VWS V14.01,2013-10-21 03:01:00,
2013-10-20 22:06:00,37.1,33.3,29.85,West,275,0.0,4.0,86,0.00,,OVC035,0.02,VWS V14.01,2013-10-21 03:06:00,
2013-10-20 22:11:00,37.2,33.4,29.85,WNW,295,0.0,2.0,86,0.00,,OVC035,0.02,VWS V14.01,2013-10-21 03:11:00,
2013-10-20 22:16:00,37.3,33.8,29.85,NW,306,0.0,0.0,87,0.00,,OVC035,0.02,VWS V14.01,2013-10-21 03:16:00,
2013-10-20 22:21:00,37.3,33.8,29.85,West,275,0.0,1.0,87,0.00,,OVC035,0.02,VWS V14.01,2013-10-21 03:21:00,
2013-10-20 22:27:00,37.3,33.8,29.86,West,279,0.0,3.0,87,0.00,,OVC035,0.02,VWS V14.01,2013-10-21 03:27:00,
2013-10-20 22:32:00,37.4,33.9,29.86,West,278,0.0,3.0,87,0.00,,OVC035,0.02,VWS V14.01,2013-10-21 03:32:00,
2013-10-20 22:37:00,37.3,34.1,29.86,WNW,285,0.0,1.0,88,0.00,,OVC035,0.02,VWS V14.01,2013-10-21 03:37:00,
2013-10-20 22:42:00,37.3,34.1,29.86,WNW,295,0.0,1.0,88,0.00,,OVC041,0.02,VWS V14.01,2013-10-21 03:42:00,
2013-10-20 22:47:00,37.2,34.0,29.86,West,271,0.0,3.0,88,0.00,,OVC041,0.02,VWS V14.01,2013-10-21 03:47:00,
2013-10-20 22:52:00,37.2,34.0,29.86,West,270,1.0,4.0,88,0.00,,OVC041,0.02,VWS V14.01,2013-10-21 03:52:00,
2013-10-20 22:58:00,37.1,33.9,29.86,West,277,1.0,9.0,88,0.00,,OVC041,0.02,VWS V14.01,2013-10-21 03:58:00,
2013-10-20 23:01:00,37.0,33.8,29.86,West,263,5.0,7.0,88,0.00,,OVC041,0.02,VWS V14.01,2013-10-21 04:01:00,
2013-10-20 23:02:00,37.0,34.1,29.86,West,269,4.0,6.0,89,0.00,,OVC041,0.02,VWS V14.01,2013-10-21 04:02:00,
2013-10-20 23:03:00,36.9,34.0,29.86,West,269,0.0,5.0,89,0.00,,OVC041,0.02,VWS V14.01,2013-10-21 04:03:00,
2013-10-20 23:05:00,36.9,33.7,29.86,NNW,328,0.0,3.0,88,0.00,,OVC041,0.02,VWS V14.01,2013-10-21 04:05:00,
2013-10-20 23:06:00,36.9,34.0,29.86,NNW,328,0.0,0.0,89,0.00,,OVC041,0.02,VWS V14.01,2013-10-21 04:06:00,
2013-10-20 23:09:00,36.8,33.9,29.86,WNW,285,0.0,3.0,89,0.00,,OVC041,0.02,VWS V14.01,2013-10-21 04:09:00,
2013-10-20 23:14:00,36.8,33.9,29.86,West,273,0.0,3.0,89,0.00,,OVC041,0.02,VWS V14.01,2013-10-21 04:14:00,
2013-10-20 23:19:00,36.8,33.9,29.86,WNW,282,2.0,4.0,89,0.00,,OVC041,0.02,VWS V14.01,2013-10-21 04:19:00,
2013-10-20 23:24:00,36.8,33.9,29.86,West,273,0.0,5.0,89,0.00,,OVC046,0.02,VWS V14.01,2013-10-21 04:24:00,
2013-10-20 23:29:00,36.8,34.2,29.86,West,265,4.0,4.0,90,0.00,,OVC046,0.02,VWS V14.01,2013-10-21 04:29:00,
2013-10-20 23:34:00,36.7,34.0,29.87,WNW,296,0.0,3.0,90,0.00,,OVC046,0.02,VWS V14.01,2013-10-21 04:34:00,
2013-10-20 23:39:00,36.7,34.0,29.87,West,269,0.0,1.0,90,0.00,,OVC046,0.02,VWS V14.01,2013-10-21 04:39:00,
2013-10-20 23:44:00,36.8,34.2,29.87,West,269,1.0,3.0,90,0.00,,BKN050,0.02,VWS V14.01,2013-10-21 04:44:00,
2013-10-20 23:49:00,36.8,34.2,29.87,NW,313,4.0,4.0,90,0.00,,BKN050,0.02,VWS V14.01,2013-10-21 04:49:00,
2013-10-20 23:54:00,36.8,34.2,29.87,West,275,0.0,5.0,90,0.00,,BKN050,0.02,VWS V14.01,2013-10-21 04:54:00,
2013-10-20 23:59:00,36.8,34.2,29.87,West,267,0.0,6.0,90,0.00,,BKN050,0.00,VWS V14.01,2013-10-21 04:59:00,